カタログに戻る

THOR ABLESTAR DEB

運用中LEO
NORAD 337·DEBRIS·🇺🇸 United States

打ち上げ Jun 29, 1961 から Cape Canaveral Space Force Station

Loading…

次のパス (今後24時間)

TLE

最新Source: Space-Track

元期: Sep 14, 2026, 11:58 UTC

1 00337U 61015DP  26257.49867368  .00000191  00000-0  25820-3 0  9990
2 00337  67.0074  71.1198 0104969 197.8548 161.8827 13.76471920257071

AllMySatでTHOR ABLESTAR DEBをリアルタイム追跡

Download on the App Store